Flag for Spain

Past Weather in 42°13'59.9"N, 8°43'00.0"W, Spain — Yesterday and Last 2 Weeks

Currently: 55 °F. Heavy rain. Fog. (Weather station: Vigo / Peinador, Spain). See more current weather

Past Weather in 42°13'59.9"N, 8°43'00.0"W — Graph

°F

42°13'59.9"N, 8°43'00.0"W Temperature Yesterday

Maximum temperature yesterday: 54 °F (at 11:00 pm)
Minimum temperature yesterday: 43 °F (at 12:30 am)
Average temperature yesterday: 48 °F

High & Low Weather Summary for the Past Weeks

 TemperatureHumidityPressure
High72 °F (Feb 19, 3:30 pm)100% (Feb 10, 11:00 pm)30.60 "Hg (Feb 10, 11:00 pm)
Low41 °F (Feb 22, 11:30 pm)53% (Feb 19, 3:30 pm)29.65 "Hg (Feb 10, 2:00 pm)
Average54 °F87%30.13 "Hg
* Reported Feb 10 2:00 pm — Feb 25 2:35 pm, 42°13'59.9"N, 8°43'00.0"W. Weather by CustomWeather, © 2024

Note: Actual official high and low records may vary slightly from our data, if they occured in-between our weather recording intervals... More about our weather records

42°13'59.9"N, 8°43'00.0"W Weather History for the Previous 24 Hours

Scroll right to see more
 ConditionsComfort  
Time TempWeatherWind HumidityBarometerVisibility
2:35 pm
Sun, Feb 25
55 °FHeavy rain. Fog.22 mph94%29.68 "Hg1 mi
2:00 pm55 °FRain. Fog.23 mph94%29.71 "Hg1 mi
1:36 pm55 °FRain. Fog.17 mph94%29.71 "Hg2 mi
1:21 pm55 °FRain. Fog.23 mph94%29.74 "Hg2 mi
1:00 pm55 °FLight rain. Mostly cloudy.26 mph94%29.74 "Hg4 mi
12:30 pm55 °FLight rain. Mostly cloudy.25 mph94%29.77 "Hg4 mi
12:18 pm55 °FLight rain. Mostly cloudy.24 mph94%29.77 "Hg4 mi
11:44 am55 °FBroken clouds.25 mph94%29.77 "Hg4 mi
11:00 am55 °FLight rain. Fog.20 mph94%29.80 "Hg2 mi
10:30 am54 °FRain. Fog.20 mph100%29.80 "Hg1 mi
10:14 am55 °FRain. Fog.20 mph94%29.80 "Hg1 mi
10:00 am55 °FLight rain. Fog.20 mph94%29.83 "Hg2 mi
9:30 am55 °FBroken clouds.17 mph94%29.83 "HgN/A
9:00 am54 °FBroken clouds.15 mph94%29.83 "HgN/A
8:30 am54 °FRain. Broken clouds.14 mph94%29.83 "Hg1 mi
8:00 am54 °FLight rain. Partly cloudy.16 mph94%29.86 "Hg2 mi
7:30 am54 °FPartly cloudy.14 mph94%29.86 "HgN/A
7:00 am54 °FPartly cloudy.14 mph94%29.86 "HgN/A
6:30 am54 °FPartly cloudy.14 mph94%29.86 "HgN/A
6:00 am54 °FPartly cloudy.13 mph94%29.89 "Hg4 mi
5:30 am54 °FPartly cloudy.13 mph94%29.89 "HgN/A
5:00 am54 °FPartly cloudy.16 mph94%29.89 "HgN/A
4:30 am54 °FPassing clouds.15 mph100%29.89 "Hg5 mi
4:00 am54 °FPartly cloudy.15 mph100%29.89 "HgN/A
3:30 am54 °FMostly cloudy.15 mph100%29.89 "Hg6 mi
2:30 am54 °FLight rain. Overcast.16 mph100%29.92 "Hg6 mi
2:00 am54 °FLight rain. Mostly cloudy.17 mph100%29.92 "Hg1 mi
12:30 am54 °FLight rain. Mostly cloudy.16 mph100%29.95 "Hg1 mi
12:00 am54 °FLight rain. Mostly cloudy.16 mph100%29.95 "Hg1 mi
11:30 pm
Sat, Feb 24
54 °FRain. Mostly cloudy.16 mph100%29.95 "Hg1 mi
11:00 pm54 °FRain. Overcast.18 mph94%29.95 "Hg1 mi
10:30 pm52 °FRain. Overcast.14 mph100%29.95 "Hg4 mi
10:00 pm52 °FRain. Mostly cloudy.15 mph94%29.95 "Hg2 mi
9:30 pm50 °FRain. Partly cloudy.10 mph100%29.98 "Hg2 mi
9:00 pm48 °FRain. Mostly cloudy.7 mph100%29.98 "Hg1 mi
8:30 pm48 °FRain. Mostly cloudy.9 mph94%30.01 "Hg1 mi
8:00 pm48 °FRain. Partly cloudy.8 mph94%30.01 "Hg2 mi
7:30 pm48 °FRain. Partly cloudy.9 mph94%30.01 "Hg4 mi
7:00 pm50 °FLight rain. Broken clouds.9 mph88%30.01 "Hg5 mi
6:30 pm50 °FLight rain. Broken clouds.8 mph88%30.01 "Hg6 mi
6:00 pm50 °FBroken clouds.9 mph88%30.01 "Hg6 mi
5:30 pm50 °FBroken clouds.8 mph88%30.01 "HgN/A
5:00 pm50 °FBroken clouds.6 mph76%30.01 "HgN/A
4:30 pm50 °FBroken clouds.6 mph82%30.04 "HgN/A
4:00 pm50 °FMore clouds than sun.9 mph76%30.04 "HgN/A
3:30 pm50 °FBroken clouds.10 mph76%30.04 "HgN/A
3:00 pm52 °FBroken clouds.6 mph82%30.04 "HgN/A
Weather by CustomWeather, © 2024

See weather overview